Theta_e
305 306 306 306 305 305 305 305 305 301 298 300 297 300 300 300 301 303 306 307 306 307 307 307 306 306 304 305 308 308 310 311 312 312 314 314 315 315 317 317 319 315 317 319 320 325 335 323 326 329 327 325 325 326
305 304 304 305 306 305 305 305 305 305 303 302 297 298 302 301 300 302 306 308 306 306 307 305 306 306 304 304 304 306 308 308 310 312 313 312 314 315 316 322 316 320 320 324 324 326 322 320 322 321 322 324 325 326
306 305 304 304 305 305 305 305 305 305 305 303 298 299 301 301 301 301 306 306 305 307 308 309 309 307 305 303 304 307 307 307 307 308 310 312 314 313 319 318 316 315 317 321 322 320 320 320 319 319 320 322 322 324
304 304 304 304 304 303 304 305 304 305 305 303 299 301 301 301 301 301 304 307 306 306 308 312 309 307 307 306 304 303 304 305 304 309 312 313 313 313 315 315 314 314 316 319 320 316 319 319 319 318 318 320 319 322
304 304 304 304 303 303 304 303 304 304 304 303 299 301 300 299 300 302 305 307 306 307 311 311 309 310 310 309 308 305 304 304 306 311 312 313 312 314 315 315 317 315 316 318 318 316 316 316 317 317 318 319 318 320
304 303 301 302 302 302 302 302 303 304 304 303 300 301 295 302 303 305 309 308 307 305 307 310 310 311 310 310 311 307 306 307 308 312 311 311 313 315 316 318 314 312 314 313 314 313 313 315 315 316 318 317 317 318
301 300 300 301 302 301 302 301 302 303 304 304 301 300 300 305 305 310 311 309 307 305 307 310 313 312 311 311 312 312 310 311 311 312 313 314 313 314 315 318 312 312 312 312 312 312 314 314 315 315 316 317 316 317
298 298 299 300 301 301 301 301 301 301 303 304 301 298 304 306 306 307 307 305 306 307 308 310 314 312 313 313 313 311 314 312 311 313 313 313 313 313 314 313 312 311 311 311 312 312 313 313 313 314 315 316 317 319
296 298 298 299 300 300 301 302 301 300 303 302 301 303 306 307 310 307 305 304 305 308 309 309 313 319 312 313 312 312 311 314 312 314 313 313 314 315 313 313 313 311 311 311 311 313 312 313 314 315 315 316 317 318
294 295 296 297 299 300 300 300 301 300 302 305 304 309 313 306 302 305 306 307 307 309 309 312 311 315 312 312 312 313 313 314 316 314 312 316 315 313 312 311 311 311 310 310 312 313 313 313 315 315 315 316 316 317
295 295 295 296 297 298 299 300 300 299 305 307 308 309 305 302 305 309 310 310 311 311 312 313 312 313 312 314 313 311 312 314 316 315 314 315 316 313 311 311 311 312 311 312 312 312 313 315 314 315 315 315 316 316
294 294 294 296 296 297 299 300 299 301 302 302 301 300 302 305 309 312 314 314 314 313 314 312 312 312 314 312 312 311 312 314 316 313 315 315 314 312 311 311 312 312 311 312 312 313 314 313 313 313 315 316 316 315
293 293 295 296 296 297 298 298 299 299 300 303 302 303 306 312 315 313 313 313 312 312 311 312 312 312 312 311 312 311 312 315 314 316 315 315 314 312 311 311 312 313 312 312 312 311 312 313 312 314 316 315 316 317
293 293 293 294 297 299 299 298 298 299 303 307 309 314 312 313 313 315 314 311 311 309 310 310 310 313 313 312 312 312 312 313 314 317 317 314 313 312 312 311 311 313 313 312 312 314 315 315 316 316 316 316 317 318
293 293 293 297 297 297 297 298 298 300 305 309 309 310 311 311 312 312 311 311 310 310 310 311 311 311 314 312 311 311 312 315 315 318 316 314 313 313 312 312 311 312 313 313 312 312 313 313 314 316 316 316 317 317
292 294 298 296 296 295 297 299 300 303 305 308 309 313 314 313 313 312 311 311 311 311 310 310 310 310 312 313 313 314 314 317 317 316 314 314 313 313 312 311 310 311 312 313 312 312 312 312 312 313 313 313 315 316
292 297 295 294 294 295 298 299 302 303 304 308 311 311 312 312 314 313 311 310 310 311 311 310 310 309 312 312 315 318 320 316 314 312 313 313 313 312 311 311 310 311 311 311 311 311 311 312 311 311 311 311 311 312
293 294 293 293 294 298 300 300 304 306 306 309 312 312 313 314 314 312 312 311 310 310 310 310 310 311 315 316 314 316 317 313 311 311 311 311 311 311 310 310 309 309 310 310 310 311 311 311 312 313 311 310 309 308
291 291 292 293 295 297 301 303 304 307 309 309 310 311 311 312 312 312 311 311 311 310 310 310 311 311 312 311 311 310 311 311 310 311 311 311 311 311 310 309 309 309 309 310 310 310 311 311 311 311 310 310 310 308
291 291 292 295 296 299 301 304 303 306 307 308 309 310 311 312 312 312 312 312 311 310 310 310 311 311 311 311 311 311 310 310 311 309 310 310 310 309 310 309 309 309 309 309 309 309 309 311 311 310 310 309 309 308
292 294 294 295 298 298 300 303 304 306 306 307 308 308 310 311 312 312 312 311 311 311 311 311 311 311 311 311 309 310 310 310 310 309 309 310 309 308 308 308 308 308 308 309 309 309 309 309 310 309 309 308 308 306
293 293 293 296 297 299 300 300 303 304 305 305 305 305 307 308 309 310 311 312 311 311 311 311 311 311 310 310 309 309 309 309 309 308 307 306 307 309 310 308 308 308 307 307 307 308 308 309 307 308 308 308 307 306
294 293 293 295 297 298 299 300 301 303 303 305 306 307 308 309 309 309 310 310 311 311 310 310 310 309 310 309 308 308 309 309 310 310 309 308 308 308 307 307 307 306 307 306 307 307 309 307 307 307 307 307 306 306
293 294 296 297 296 297 299 301 303 304 304 305 305 306 307 308 308 309 309 310 310 310 310 309 309 309 309 309 309 309 310 308 309 309 309 309 308 309 307 305 305 305 305 306 306 308 308 308 306 306 306 306 306 305
294 297 297 297 298 300 299 299 302 303 303 304 304 305 307 307 309 309 308 308 309 309 309 308 308 308 309 309 309 309 307 308 309 309 309 307 308 308 306 305 305 305 304 305 306 307 307 306 306 306 305 304 304 303
293 296 298 297 298 298 299 299 300 301 302 303 305 305 306 308 308 309 307 307 308 308 308 307 307 308 308 308 309 309 310 309 309 309 308 307 306 306 305 303 305 306 304 304 304 305 305 305 305 305 305 303 300 301
292 295 297 297 298 299 300 300 301 302 302 304 305 306 306 306 306 307 308 308 307 306 306 306 306 307 307 308 307 307 307 308 308 309 308 307 305 303 303 304 304 304 304 303 303 303 303 303 304 303 303 302 300 299
293 293 293 295 297 298 298 299 299 300 303 304 304 306 308 307 308 308 307 306 305 305 305 304 304 305 306 306 306 306 306 307 308 307 306 305 304 302 302 303 303 303 303 302 303 303 303 303 303 302 302 301 300 297
294 295 294 295 296 297 298 298 299 300 299 300 302 304 303 302 301 304 305 304 303 303 304 303 303 304 305 306 307 307 307 308 308 308 307 306 305 303 303 303 302 303 302 300 299 299 299 300 300 301 300 300 299 297
295 294 295 296 295 296 297 297 297 298 299 299 299 300 300 301 302 301 302 302 302 303 302 302 302 302 304 306 307 308 307 307 307 307 306 305 304 303 303 303 303 303 302 302 301 299 297 298 298 299 298 298 297 297
295 296 295 296 297 297 296 297 298 298 298 299 299 299 300 300 299 292 292 294 299 301 301 302 303 303 303 304 304 307 306 304 304 304 305 304 304 304 303 302 302 302 302 301 301 300 299 299 298 298 297 296 294 295
296 297 297 298 298 297 297 297 298 298 299 299 300 300 301 301 300 294 289 290 293 293 292 293 295 298 300 300 300 300 302 301 301 301 302 302 302 301 301 300 301 301 301 300 299 299 298 298 297 296 295 294 294 292
297 297 297 298 298 298 298 299 299 299 299 300 300 301 302 299 296 294 290 289 288 290 290 290 290 291 292 294 295 294 293 292 293 295 298 298 298 299 300 300 300 299 299 298 298 297 297 296 295 294 293 292 291 290
Wind_Speed
23 23 24 24 23 24 25 26 27 26 27 29 25 21 20 18 14 11 10 11 10 4 14 11 6 5 3 3 3 11 8 3 4 4 5 6 5 5 6 2 5 5 3 4 5 3 1 16 3 3 6 5 7 7
26 26 25 27 27 26 26 26 28 28 28 29 25 22 22 19 16 12 15 8 13 7 11 24 23 15 11 17 4 4 5 8 4 3 3 3 3 3 5 1 6 3 3 5 6 4 6 8 13 11 10 8 10 9
27 26 25 26 27 27 27 27 29 30 30 30 26 28 23 21 17 13 17 6 5 5 10 10 7 9 12 14 12 3 2 3 2 3 3 2 4 2 4 3 4 4 7 3 6 11 5 10 11 12 10 9 10 10
27 27 27 27 26 29 28 28 28 30 30 30 28 32 26 21 16 13 16 11 8 4 3 0 5 5 7 15 15 14 9 4 7 8 4 3 4 3 2 2 2 3 10 10 4 8 4 13 10 12 13 10 13 14
26 26 27 26 26 28 27 28 29 30 31 32 30 35 30 22 17 12 14 14 13 4 4 8 17 6 4 11 11 13 10 4 3 3 3 4 2 4 3 1 3 2 5 4 3 10 13 12 13 11 11 11 14 14
24 26 27 27 27 26 26 27 29 30 31 33 33 37 28 19 3 6 5 11 14 12 2 4 7 5 8 5 6 11 10 5 3 4 4 4 7 5 4 1 14 18 15 11 10 11 15 14 15 12 10 12 12 14
24 27 27 26 26 25 25 27 30 32 32 33 34 31 24 7 10 5 6 3 12 9 2 4 3 7 2 7 4 5 12 4 4 3 2 3 2 6 4 4 15 15 16 16 16 14 15 10 11 14 13 13 13 11
26 25 24 24 25 25 25 29 30 33 33 32 32 23 10 5 7 5 2 3 9 5 2 3 4 1 2 1 3 3 4 4 3 3 1 4 5 3 1 10 13 12 13 13 12 15 15 16 16 16 14 10 13 10
23 23 23 23 23 24 24 25 29 32 31 28 18 6 3 3 1 4 4 4 7 5 2 3 3 3 1 1 3 3 3 3 3 1 1 2 2 3 8 13 12 14 12 14 16 13 13 15 15 14 12 10 11 9
21 21 23 24 22 23 24 25 26 31 24 17 8 7 4 3 5 2 1 3 4 4 4 4 3 3 2 1 2 3 4 3 3 4 3 3 2 2 5 7 9 11 14 16 14 12 13 11 11 12 11 10 10 10
19 20 20 20 22 23 24 23 24 23 11 11 6 3 8 8 4 3 3 4 4 4 5 4 5 6 3 3 2 1 2 4 3 3 3 2 3 8 12 11 6 6 14 14 12 13 14 15 11 12 10 12 10 9
19 20 20 22 21 21 21 21 14 13 11 10 14 13 7 3 4 5 5 5 6 3 8 6 1 2 2 2 2 2 2 4 2 2 3 1 4 10 12 14 14 10 15 14 15 11 12 10 10 8 10 10 6 9
20 20 20 20 20 19 18 11 16 19 21 1 3 3 3 4 3 6 5 4 3 6 5 4 4 3 4 2 2 1 2 3 6 3 2 2 6 9 11 13 14 13 13 13 16 7 7 3 10 9 5 5 6 6
21 23 22 20 18 15 5 19 21 18 6 4 4 4 6 6 6 6 6 6 3 3 5 3 4 4 3 3 2 2 3 1 2 2 3 4 6 9 10 12 14 16 12 16 16 13 9 8 10 11 11 10 6 5
22 24 15 12 12 16 18 20 18 10 5 4 4 5 7 8 7 4 6 4 3 4 4 4 4 3 3 3 2 2 2 3 3 3 2 3 5 7 9 11 14 15 13 13 13 14 14 15 12 11 16 16 17 13
23 15 5 11 17 21 23 21 13 8 4 4 7 7 8 6 8 7 7 6 6 4 2 5 5 2 5 3 3 4 2 4 2 3 5 4 2 5 7 9 11 12 12 13 10 15 15 14 13 15 19 17 15 17
17 3 20 21 23 25 20 6 5 5 5 5 6 8 12 10 8 8 6 5 5 6 7 4 3 3 2 3 2 3 4 3 5 3 3 3 3 3 6 8 8 10 10 10 7 9 16 18 19 19 14 18 15 17
15 17 21 22 22 19 5 6 5 5 8 8 8 9 10 9 8 8 7 5 6 7 8 8 4 6 4 3 3 5 7 7 4 3 1 1 1 3 4 6 7 9 10 11 13 10 10 15 12 11 20 21 18 22
22 23 22 18 15 7 4 5 6 5 8 8 9 10 10 8 7 9 8 7 6 7 7 4 6 7 9 9 9 6 5 4 3 4 3 3 2 2 4 5 5 6 5 7 10 9 7 13 14 15 18 20 18 20
24 22 18 11 5 4 5 4 6 5 5 6 7 8 9 9 8 8 8 8 8 8 8 7 12 10 10 8 5 5 5 4 5 4 5 2 5 5 3 5 6 8 8 10 8 11 13 14 15 11 14 15 18 20
23 5 10 10 6 8 4 5 5 6 6 7 7 7 7 8 8 9 9 8 9 10 11 11 11 11 11 10 12 6 5 6 5 5 2 7 4 3 3 3 3 7 6 3 5 8 11 13 13 12 13 15 13 18
20 10 12 9 5 6 6 10 6 6 6 10 12 11 10 9 10 10 9 10 11 10 11 11 11 10 9 12 9 14 11 6 10 7 3 3 6 3 5 2 4 5 6 6 6 7 9 11 11 12 13 14 16 18
10 7 8 7 6 5 7 13 8 7 6 5 8 7 7 7 8 2 4 6 7 10 11 8 6 8 9 14 11 14 15 12 7 7 7 6 3 2 1 4 2 4 5 6 7 9 10 6 8 9 9 10 12 16
13 5 4 5 7 5 5 5 4 5 6 10 12 16 13 9 5 4 8 8 8 6 5 4 5 8 8 9 9 7 12 14 11 10 9 9 4 4 4 2 1 2 4 7 9 10 6 8 7 9 11 11 11 13
3 5 5 9 5 5 7 14 15 12 16 14 16 13 9 5 5 9 11 6 5 3 1 2 6 7 8 7 7 9 15 15 9 7 11 9 10 11 6 6 4 2 4 6 6 8 7 8 6 7 8 11 9 10
7 7 8 6 7 11 10 15 15 17 15 18 17 8 8 8 5 5 6 4 4 3 3 3 4 5 6 4 4 6 5 20 11 6 13 12 9 5 3 1 4 9 3 5 6 8 9 3 4 5 8 9 12 10
6 8 8 11 10 9 8 9 11 9 12 4 5 13 9 5 6 2 4 3 5 4 1 3 4 5 6 8 9 9 13 17 11 16 6 8 11 6 5 6 5 7 5 5 5 5 5 4 5 6 6 8 9 9
10 8 16 15 14 11 15 14 16 6 5 4 4 4 3 2 4 4 2 4 4 1 5 8 9 4 8 12 12 10 9 8 10 15 13 8 10 10 8 9 9 9 8 5 3 3 3 4 4 4 5 6 8 8
11 12 14 18 17 13 15 16 15 13 13 11 7 4 4 2 8 4 7 7 10 11 8 8 9 10 11 8 13 6 13 18 11 14 15 10 8 11 11 11 11 10 7 6 6 6 5 4 4 4 5 6 6 8
18 13 16 18 18 17 13 12 12 12 11 11 9 11 9 8 9 11 12 14 12 9 10 11 12 11 9 6 7 6 2 8 16 15 12 11 13 17 14 13 12 11 9 7 7 6 5 5 5 5 4 5 5 5
11 11 15 15 17 13 12 11 10 10 12 13 12 11 10 10 6 15 17 13 12 13 11 12 12 9 9 5 9 6 5 5 4 2 1 11 10 11 12 11 9 6 7 5 3 3 6 3 3 4 4 5 6 5
6 11 13 15 11 11 11 10 9 10 9 9 10 7 10 11 6 3 17 16 12 10 10 9 10 10 9 7 10 9 11 12 10 9 10 13 11 8 7 6 6 6 5 5 4 4 3 3 3 4 5 5 5 7
8 9 10 8 7 8 9 7 5 7 8 9 11 9 3 0 5 5 11 18 12 10 9 8 8 9 13 13 10 12 14 14 15 14 13 13 10 6 4 4 5 5 5 4 4 4 4 5 4 5 6 6 6 6
Wind_Direction
323 326 328 327 329 331 334 335 338 337 338 338 335 329 327 326 311 293 272 226 216 256 297 298 307 269 244 235 268 314 312 2 313 337 327 0 325 0 318 316 312 186 228 234 233 253 120 343 15 14 49 60 33 21
314 317 321 322 323 326 329 331 332 334 335 339 336 332 326 323 313 289 271 229 220 245 279 297 286 271 236 250 264 267 297 315 315 322 331 330 303 302 306 313 309 263 339 307 2 84 190 32 62 43 23 16 22 5
308 311 313 316 318 321 324 326 327 330 330 335 332 330 327 322 309 269 267 219 208 270 288 239 231 209 215 224 230 263 256 301 275 276 301 254 279 264 325 26 293 203 297 266 307 355 339 65 33 26 13 2 355 344
307 308 309 308 314 317 320 322 325 327 329 332 331 332 324 317 304 276 243 245 219 298 283 253 123 190 213 203 213 215 248 275 310 282 285 295 282 233 305 253 293 322 319 337 58 337 59 21 3 353 352 355 352 341
305 307 311 311 312 314 316 319 322 325 328 330 328 330 323 315 296 254 240 240 226 257 305 314 305 218 179 193 213 219 226 240 260 266 250 271 257 309 189 294 21 27 344 15 314 325 323 326 324 320 330 341 338 337
306 309 312 311 311 313 314 318 321 321 324 328 327 331 326 319 261 183 222 211 207 203 270 294 351 207 179 162 187 191 216 223 250 306 310 310 325 327 304 81 11 351 351 344 313 311 304 305 310 327 321 325 324 321
311 315 314 312 312 316 320 324 323 321 318 323 326 329 327 296 176 273 7 74 172 169 233 279 266 194 147 171 181 192 206 234 262 246 277 278 326 324 328 17 336 339 333 324 311 297 293 300 316 317 309 310 304 308
313 312 314 317 315 315 317 322 322 322 318 321 326 325 326 142 198 235 122 157 170 239 240 275 279 359 262 306 225 215 216 201 216 275 329 341 308 339 331 341 325 315 318 305 314 319 299 295 291 285 290 294 299 301
306 312 318 321 323 320 318 318 321 322 322 321 327 318 256 242 333 26 313 211 207 273 261 236 276 280 247 52 303 238 224 246 148 336 279 243 289 10 315 308 344 345 325 313 311 303 288 288 287 280 277 282 289 305
302 304 311 318 318 318 322 324 324 325 328 327 298 215 164 40 354 207 226 199 211 217 228 252 285 288 267 298 297 313 279 289 185 207 141 239 268 292 334 345 327 326 313 308 306 305 308 286 294 308 306 294 290 295
317 319 319 318 316 320 324 326 326 335 347 335 332 331 356 327 257 212 244 228 181 225 211 235 276 313 110 303 243 252 305 283 279 153 255 222 25 10 18 351 14 350 321 318 299 283 283 282 272 276 289 286 286 290
316 317 321 322 319 317 324 328 328 345 321 296 289 304 295 260 221 224 214 196 213 256 166 248 52 256 79 232 227 244 245 283 259 14 262 330 20 2 4 360 14 32 338 338 323 305 276 275 286 275 268 274 288 295
318 311 315 318 320 318 317 332 338 327 321 197 189 231 225 225 243 221 212 219 238 184 196 209 221 163 151 216 247 276 241 252 324 275 289 55 9 18 3 357 7 39 345 350 347 359 26 332 268 266 266 238 243 275
327 313 310 319 339 342 296 328 330 337 295 251 225 245 226 209 230 225 223 259 40 301 264 303 306 148 170 219 181 247 239 241 266 262 247 19 3 4 3 0 1 23 6 12 5 8 38 7 347 9 12 331 317 337
325 320 325 333 350 336 328 320 320 307 270 261 224 244 230 237 268 248 254 268 236 245 279 267 232 217 178 216 213 242 236 241 237 243 330 10 345 353 4 4 6 14 17 21 24 21 22 20 11 19 14 13 1 351
328 339 81 322 329 324 322 320 306 220 243 247 236 256 256 257 262 234 222 246 256 215 222 249 260 240 204 204 178 215 232 228 240 227 287 325 345 343 359 13 12 16 20 40 17 9 35 31 25 18 28 17 356 356
333 266 318 326 320 321 317 285 238 215 236 233 241 241 265 279 269 293 297 253 237 217 236 244 237 251 74 244 177 187 223 217 242 244 240 303 310 347 338 13 16 14 24 51 41 14 9 21 34 37 29 17 16 14
305 312 314 314 327 320 294 214 250 237 237 240 250 259 258 246 261 268 264 240 241 228 241 247 250 226 215 183 228 217 215 233 252 297 275 208 303 293 331 4 9 22 24 16 22 69 43 28 17 16 26 23 25 24
312 309 309 316 322 301 277 228 233 257 239 256 261 261 269 274 267 264 265 265 227 237 261 229 236 247 242 239 237 262 209 209 221 183 196 192 189 247 297 319 345 8 1 25 38 17 81 60 41 22 22 22 27 25
323 315 311 312 290 260 260 249 219 257 263 271 289 272 266 266 255 247 233 231 233 220 232 238 240 254 269 277 233 238 275 166 211 229 212 200 183 193 216 315 358 319 337 354 25 47 359 64 50 32 30 30 30 30
316 332 319 292 242 226 278 275 241 253 274 272 278 283 278 269 250 238 243 233 232 221 239 241 249 257 272 271 271 271 210 238 214 253 258 165 230 187 210 232 272 313 327 37 12 36 39 22 38 14 37 35 36 33
289 283 301 277 248 223 247 238 245 301 289 269 278 279 268 268 269 266 256 238 234 230 235 252 258 262 250 243 241 240 241 226 227 128 134 190 246 87 265 270 326 326 335 358 6 59 57 41 6 38 31 34 30 49
284 251 223 238 237 236 259 233 249 233 244 268 235 257 264 244 255 255 257 256 240 236 241 244 266 278 267 271 239 224 212 230 209 227 165 225 182 219 260 275 328 347 337 359 354 27 71 46 51 43 43 28 26 29
244 248 219 230 212 259 254 223 229 255 271 251 265 272 264 269 266 229 255 246 245 252 231 236 247 253 242 238 251 224 193 223 228 196 192 208 186 160 220 339 5 11 1 321 39 40 46 79 41 36 52 50 32 40
260 226 225 229 218 231 244 241 236 240 257 264 263 261 276 319 271 245 249 256 241 222 69 313 280 269 255 243 225 232 228 213 213 182 222 189 167 210 194 186 149 66 335 324 50 69 51 62 47 37 45 46 38 51
236 232 208 221 225 233 245 260 252 244 249 248 245 250 252 251 229 245 253 233 118 76 47 316 326 313 292 278 187 254 141 229 187 237 177 214 181 209 167 205 169 111 37 18 31 87 93 61 47 29 49 54 47 43
240 249 237 240 257 262 269 275 280 282 274 257 255 226 235 239 239 202 136 159 103 93 10 359 0 324 316 300 285 243 174 230 215 198 157 230 145 151 175 157 114 97 99 71 62 37 57 48 41 41 60 63 54 48
222 256 259 263 254 251 262 271 270 269 267 273 262 233 223 253 10 22 85 109 96 269 334 329 320 330 323 306 282 251 212 188 137 147 156 146 136 154 141 124 121 127 101 78 42 62 41 28 61 50 55 63 69 60
237 247 254 263 267 265 259 253 261 265 266 271 276 294 330 278 279 293 326 34 316 319 340 341 337 327 301 284 278 284 189 162 165 171 177 169 166 173 162 148 157 154 123 110 96 83 60 53 46 64 70 73 87 81
245 242 249 255 257 260 263 269 268 263 275 287 306 303 294 273 51 31 3 354 342 335 329 310 299 292 285 293 277 91 326 272 184 193 197 199 188 176 175 175 178 181 170 174 158 133 121 135 121 102 83 72 76 87
256 262 255 250 248 255 256 254 254 261 268 275 279 278 275 292 91 42 29 3 342 336 339 331 330 331 301 342 360 254 144 94 67 31 139 155 157 173 164 172 181 178 157 183 203 196 171 151 94 88 86 91 81 73
244 238 246 250 249 243 255 258 256 262 257 251 256 280 284 268 244 45 13 14 21 17 13 11 13 6 7 31 48 18 111 106 83 64 76 95 101 114 142 161 174 179 179 190 199 170 169 124 141 121 95 84 83 81
247 252 246 259 262 262 250 232 260 266 258 250 254 242 230 295 73 39 26 22 20 11 21 27 38 57 54 47 69 69 67 69 76 90 106 114 120 122 182 138 128 140 151 141 141 146 149 158 151 127 109 99 90 85